Location: La Brionne
(46.1728°N, 1.7849°E)
Time: 07:19:23
(UTC+00:00)

Cosmos 2322 Rocket - Pass Details

Date: 28 October 2021
Orbit: 832 x 851 km, 71.0° (Epoch: 01 December)

Event Time Altitude Azimuth Distance (km) Brightness Sun altitude
Rises 18:47:09 0° 239° (WSW) 3,369 6.2 -21.8°
Reaches altitude 10° 18:49:54 10° 251° (WSW) 2,440 5.5 -22.3°
Maximum altitude 18:54:42 29° 310° (NW) 1,506 4.0 -23.1°
Drops below altitude 10° 18:59:32 10° 9° (N) 2,459 4.6 -23.9°
Enters shadow 19:01:54 - 20° (NNE) 3,244 5.1 -24.3°
